www.pogodaiklimat.ru

Погода и климат >> Архив погоды >> Австралия >> Западная Австралия >> Фицрой-Кроссинг


ПОГОДА в Фицрой-Кроссинге

  • Прогноз погоды в Фицрой-Кроссинге
  • Монитор погоды в Фицрой-Кроссинге

АРХИВ ПОГОДЫ в Фицрой-Кроссинге

Время (UTC), дата Ветер
(напр.,м/с)
 
Видим.   Явления Облачность Т
(С)
Тd
(С)
f
(%)
Тe
(С)
Тes
(С)
Комфортность P
(гПа)
Po
(гПа)
Тmin
(С)
Tmax
(С)
R
(мм)
R24
(мм)
S
(см)
19 11.02 СЗ 5 н/о н/о +27.9 +23.1 75 +37 +37 очень
душно
1008.6 995.8
21 11.02 СЗ 5 н/о н/о +26.8 +23.1 80 +36 +36 очень
душно
1009.4 996.6
22 11.02 СЗ 4 н/о н/о +26.8 +23.3 81 +36 +36 очень
душно
1010.0 997.2
00 12.02 З 7 н/о н/о +30.3 +22.7 64 +40 +40 очень
душно
1011.3 998.5
01 12.02 З 6 н/о н/о +31.2 +21.9 58 +40 +40 очень
душно
1011.4 998.6 +26.6
03 12.02 З 6 н/о н/о +34.4 +22.1 49 +43 +43 опасность
перегрева
1010.2 997.4
04 12.02 З 6 н/о н/о +36.7 +22.1 43 +45 +45 опасность
перегрева
1009.4 996.6
06 12.02 З 5 н/о н/о +38.7 +20.9 36 +45 +45 опасность
перегрева
1007.6 994.8
07 12.02 СЗ 5 н/о н/о +39.0 +21.2 36 +46 +46 опасность
перегрева
1006.8 994.0
09 12.02 СЗ 7 н/о н/о +38.0 +21.6 39 +46 +46 опасность
перегрева
1006.5 993.7
10 12.02 СЗ 7 н/о н/о +35.8 +22.0 45 +44 +44 опасность
перегрева
1006.5 993.7
12 12.02 СЗ 6 н/о н/о +33.0 +21.8 52 +41 +41 опасность
перегрева
1007.6 994.8
13 12.02 СЗ 6 н/о н/о +32.0 +21.5 54 +40 +40 очень
душно
1008.7 995.9 +40.1
15 12.02 СЗ 6 н/о н/о +30.6 +22.2 61 +40 +40 очень
душно
1009.3 996.5
16 12.02 СЗ 7 н/о н/о +29.7 +22.7 66 +39 +39 очень
душно
1009.4 996.6
18 12.02 СЗ 7 н/о н/о +28.5 +22.3 69 +37 +37 очень
душно
1009.4 996.6
19 12.02 СЗ 5 н/о н/о +28.0 +22.7 73 +37 +37 очень
душно
1009.9 997.1
21 12.02 СЗ 6 н/о н/о +27.0 +22.6 77 +36 +36 очень
душно
1010.2 997.4
22 12.02 З 6 н/о н/о +27.3 +22.5 75 +36 +36 очень
душно
1011.9 999.0
00 13.02 З 7 н/о н/о +29.8 +22.5 65 +39 +39 очень
душно
1012.6 999.7
01 13.02 З 7 н/о н/о +31.7 +21.8 56 +40 +40 очень
душно
1012.3 999.4 +27.0
03 13.02 З 6 н/о н/о +35.1 +21.4 45 +43 +43 опасность
перегрева
1010.9 998.1
04 13.02 ЮЗ 8 н/о н/о +37.6 +19.5 35 +43 +43 опасность
перегрева
1009.9 997.1
06 13.02 ЮЗ 6 н/о н/о +39.6 +18.8 30 +44 +44 опасность
перегрева
1008.1 995.3
07 13.02 ЮЗ 5 н/о н/о +40.1 +19.7 31 +45 +45 опасность
перегрева
1007.6 994.8
09 13.02 ЮЗ 6 н/о н/о +39.2 +19.0 31 +43 +43 опасность
перегрева
1006.9 994.1
10 13.02 З 6 н/о н/о +37.6 +18.1 32 +41 +41 опасность
перегрева
1007.1 994.3
12 13.02 СЗ 4 н/о н/о +34.1 +21.2 47 +42 +42 опасность
перегрева
1008.3 995.5
13 13.02 СЗ 4 н/о н/о +32.6 +20.8 50 +40 +40 очень
душно
1008.7 995.9 +40.4
15 13.02 СЗ 8 н/о н/о +31.7 +21.5 55 +40 +40 очень
душно
1008.8 996.0
16 13.02 СЗ 6 н/о н/о +30.8 +21.9 59 +39 +39 очень
душно
1008.6 995.8
18 13.02 З 5 н/о н/о +29.1 +23.1 70 +39 +39 очень
душно
1008.2 995.4
19 13.02 З 5 н/о н/о +28.6 +23.1 72 +38 +38 очень
душно
1008.6 995.8
21 13.02 З 4 н/о н/о +27.8 +21.6 69 +36 +36 очень
душно
1009.4 996.6
22 13.02 СЗ 3 н/о н/о +26.7 +22.3 77 +35 +35 очень
душно
1010.2 997.4
00 14.02 З 5 н/о н/о +30.9 +21.9 59 +40 +40 очень
душно
1011.4 998.6
01 14.02 З 6 н/о н/о +33.1 +21.6 51 +41 +41 опасность
перегрева
1011.1 998.3 +26.7
03 14.02 ЮЗ 4 н/о н/о +37.3 +18.8 34 +42 +42 опасность
перегрева
1009.5 996.7
04 14.02 З 3 н/о н/о +38.8 +17.5 29 +42 +42 опасность
перегрева
1008.6 995.8
06 14.02 Ю 4 н/о н/о +41.8 +15.7 22 +43 +43 опасность
перегрева
1006.7 993.9
07 14.02 З 3 н/о н/о +41.2 +15.9 23 +43 +43 опасность
перегрева
1006.2 993.4
09 14.02 ЮЗ 3 н/о н/о +40.9 +14.3 21 +41 +41 опасность
перегрева
1006.0 993.2
10 14.02 З 4 н/о н/о +39.0 +15.4 25 +40 +40 очень
душно
1006.5 993.7
12 14.02 СЗ 5 н/о н/о +35.1 +19.9 41 +41 +41 опасность
перегрева
1007.5 994.7
13 14.02 СЗ 4 н/о н/о +33.3 +19.7 45 +39 +39 очень
душно
1008.0 995.2 +42.5
15 14.02 СЗ 7 н/о н/о +32.3 +22.1 55 +41 +41 опасность
перегрева
1008.6 995.8
16 14.02 СЗ 6 н/о н/о +31.4 +22.4 59 +41 +41 опасность
перегрева
1008.4 995.6
18 14.02 З 5 н/о н/о +29.4 +23.8 72 +40 +40 очень
душно
1008.5 995.7
19 14.02 СЗ 5 н/о н/о +28.8 +23.9 75 +40 +40 очень
душно
1008.5 995.7
21 14.02 З 3 н/о н/о +27.0 +23.3 80 +36 +36 очень
душно
1009.3 996.5
22 14.02 З 3 н/о н/о +26.9 +23.4 81 +36 +36 очень
душно
1010.2 997.4
00 15.02 З 4 н/о н/о +31.7 +23.2 61 +42 +42 опасность
перегрева
1010.7 997.9
01 15.02 Ю 2 н/о н/о +33.3 +21.1 49 +41 +41 опасность
перегрева
1010.7 997.9 +26.5
03 15.02 ЮВ 3 н/о н/о +39.4 +16.3 26 +41 +41 опасность
перегрева
1009.4 996.6
04 15.02 Ю 5 н/о н/о +40.4 +13.1 20 +40 +40 очень
жарко
1008.2 995.4
06 15.02 Ю 7 н/о н/о +43.1 +6.3 11 +40 +40 очень
жарко
1006.5 993.7
07 15.02 ЮВ 5 н/о н/о +43.5 +5.2 10 +41 +41 опасность
перегрева
1006.1 993.3
09 15.02 СЗ 1 н/о н/о +42.3 +4.3 10 +39 +39 очень
жарко
1005.4 992.6
10 15.02 Ю 3 н/о н/о +40.6 +4.4 11 +38 +38 очень
жарко
1005.7 992.9
12 15.02 С 4 н/о н/о +35.2 +12.8 26 +35 +35 очень
жарко
1007.8 995.0
13 15.02 СЗ 3 н/о н/о +34.0 +12.9 28 +34 +34 очень
жарко
1008.4 995.6 +44.1
15 15.02 СЗ 4 н/о н/о +32.2 +16.5 39 +35 +35 очень
душно
1008.0 995.2
16 15.02 СЗ 5 н/о н/о +31.9 +22.6 58 +42 +42 опасность
перегрева
1008.0 995.2
18 15.02 СЗ 5 н/о н/о +30.5 +24.6 71 +43 +43 опасность
перегрева
1008.3 995.5
19 15.02 СЗ 5 н/о н/о +30.2 +24.8 73 +43 +43 опасность
перегрева
1008.7 995.9
21 15.02 С 5 н/о н/о +30.1 +24.9 74 +43 +43 опасность
перегрева
1009.7 996.9
22 15.02 СЗ 5 н/о н/о +30.1 +24.5 72 +42 +42 опасность
перегрева
1010.2 997.4
00 16.02 СЗ 5 н/о н/о +33.3 +24.5 60 +46 +46 опасность
перегрева
1011.0 998.2
01 16.02 СЗ 4 н/о н/о +34.8 +23.8 53 +46 +46 опасность
перегрева
1011.0 998.2 +29.9
03 16.02 С 2 н/о н/о +38.3 +21.9 39 +46 +46 опасность
перегрева
1009.4 996.6
04 16.02 ЮЗ 3 н/о н/о +39.5 +20.2 33 +45 +45 опасность
перегрева
1008.3 995.5
06 16.02 З 6 н/о н/о +41.6 +18.2 26 +45 +45 опасность
перегрева
1006.2 993.4
07 16.02 Ю 7 н/о н/о +32.6 +19.1 45 +38 +38 очень
душно
1005.8 993.0
09 16.02 СЗ 5 н/о н/о +30.0 +18.8 51 +35 +35 очень
душно
1005.9 993.1
10 16.02 З 2 н/о {туман} н/о +29.0 +21.5 64 +37 +37 очень
душно
1006.7 993.9
12 16.02 С 5 н/о н/о +29.1 +19.4 56 +35 +35 очень
душно
1008.8 996.0
13 16.02 СЗ 6 н/о {туман} н/о +27.9 +19.9 62 +34 +34 очень
душно
1008.8 996.0 +42.7
15 16.02 З 3 н/о н/о +26.3 +20.4 70 +33 +33 очень
душно
1009.2 996.4
16 16.02 ЮЗ 3 н/о н/о +26.5 +20.6 70 +33 +33 очень
душно
1009.5 996.7
18 16.02 штиль 0 н/о н/о +25.6 +19.9 71 +31 +31 очень
душно
1008.8 996.0
19 16.02 СЗ 3 н/о н/о +24.4 +19.7 75 +30 +30 очень
душно
1009.0 996.2
21 16.02 С 3 н/о н/о +24.6 +19.2 72 +30 +30 очень
душно
1009.2 996.4
22 16.02 С 3 н/о н/о +25.4 +19.8 71 +31 +31 очень
душно
1009.8 997.0
00 17.02 СЗ 4 н/о н/о +31.1 +19.1 49 +37 +37 очень
душно
1010.1 997.3
01 17.02 СЗ 6 н/о в посл. час дождь {туман} н/о +33.3 +18.6 42 +38 +38 очень
душно
1010.0 997.2 +24.4
03 17.02 З 5 н/о н/о +36.6 +18.6 35 +41 +41 опасность
перегрева
1009.0 996.2
04 17.02 З 5 н/о н/о +36.8 +18.4 34 +41 +41 опасность
перегрева
1008.2 995.4
06 17.02 З 6 н/о н/о +39.7 +18.3 29 +43 +43 опасность
перегрева
1006.1 993.3
07 17.02 З 6 н/о н/о +39.7 +17.8 28 +43 +43 опасность
перегрева
1005.5 992.7
09 17.02 З 6 н/о н/о +38.7 +18.0 30 +42 +42 опасность
перегрева
1005.1 992.3
10 17.02 З 4 н/о н/о +36.6 +18.6 35 +41 +41 опасность
перегрева
1005.2 992.4
12 17.02 СЗ 6 н/о н/о +34.4 +20.0 43 +40 +40 очень
душно
1007.1 994.3
13 17.02 СЗ 6 н/о н/о +33.3 +17.1 38 +37 +37 очень
душно
1007.5 994.7 +40.7
15 17.02 СЗ 6 н/о н/о +30.9 +18.6 48 +36 +36 очень
душно
1008.2 995.4
16 17.02 СЗ 9 н/о н/о +30.2 +19.9 54 +36 +36 очень
душно
1008.5 995.7
18 17.02 СЗ 7 н/о н/о +29.2 +21.2 62 +37 +37 очень
душно
1008.6 995.8
19 17.02 СЗ 6 н/о н/о +28.3 +20.8 64 +35 +35 очень
душно
1008.3 995.5
21 17.02 З 4 н/о н/о +27.4 +21.0 68 +34 +34 очень
душно
1008.4 995.6
22 17.02 З 3 н/о н/о +27.0 +21.5 72 +34 +34 очень
душно
1009.0 996.2
00 18.02 З 5 н/о н/о +30.7 +21.2 57 +38 +38 очень
душно
1009.8 997.0
01 18.02 З 5 н/о н/о +32.2 +20.8 51 +39 +39 очень
душно
1010.0 997.2 +26.8
03 18.02 З 5 н/о н/о +35.7 +21.2 43 +43 +43 опасность
перегрева
1008.9 996.1
04 18.02 З 6 н/о н/о +37.0 +20.7 39 +44 +44 опасность
перегрева
1008.2 995.4
06 18.02 З 6 н/о н/о +39.0 +19.3 32 +44 +44 опасность
перегрева
1006.5 993.7
07 18.02 СЗ 6 н/о н/о +39.4 +20.1 33 +45 +45 опасность
перегрева
1006.2 993.4
09 18.02 З 6 н/о н/о +38.3 +20.1 35 +44 +44 опасность
перегрева
1006.1 993.3
10 18.02 З 6 н/о н/о +36.7 +20.1 38 +42 +42 опасность
перегрева
1006.2 993.4
12 18.02 СЗ 6 н/о н/о +34.1 +21.5 48 +42 +42 опасность
перегрева
1007.5 994.7
13 18.02 СЗ 6 н/о н/о +33.1 +21.3 50 +41 +41 опасность
перегрева
1008.2 995.4 +40.2
15 18.02 С 8 н/о н/о +31.9 +21.4 54 +40 +40 очень
душно
1010.0 997.2
16 18.02 СЗ 8 н/о н/о +30.8 +21.0 56 +38 +38 очень
душно
1009.0 996.2
18 18.02 СЗ 8 н/о н/о +29.5 +20.1 57 +36 +36 очень
душно
1009.4 996.6
19 18.02 СЗ 5 н/о н/о +28.6 +19.8 59 +35 +35 очень
душно
1009.1 996.3

 

Местоположение метеостанции Фицрой-Кроссинг (Западная Австралия, Австралия): широта -18.18 долгота 125.56 высота над уровнем моря 115 м.

В архиве по умолчанию представлена погода в Фицрой-Кроссинге за последнюю неделю. Архивные данные за месяц целиком и за предыдущие месяцы, начиная с января 2011 года, Вы можете получить, выбрав интересующий диапазон дат из раскрывающегося списка и нажав кнопку "Ввод!".


*Определитесь, кто Вы:
робот инопланетянин человек

Внимание! Время в таблицах - всемирное. Для получения местного времени необходимо прибавить поправку, которая равна 8 ч.

Смотрите также архив погоды в соседних городах и на ближайших метеорологических станциях:

Погода на Базе ВВС Curtin (Западная Австралия, Австралия) (196 км)
Погода в Дерби (Северная территория, Австралия) (221 км)
Погода в Холс Крик (Западная Австралия, Австралия) (222 км)
Погода в Робак Запад (Западная Австралия, Австралия) (344 км)
Погода в Аэропорту Аргайл (Западная Австралия, Австралия) (352 км)
Погода в Бруме (Западная Австралия, Австралия) (353 км)
Погода на Острове Адель (Западная Австралия, Австралия) (392 км)
Погода в Уиндеме (Западная Австралия, Австралия) (406 км)
Погода в Кунунарре (Западная Австралия, Австралия) (428 км)
Погода в Калумбуру (Западная Австралия, Австралия) (447 км)

Пояснения к столбцам:

Ветер - указаны скорость ветра в м/с - средняя за 10 мин, порывы в срок и между сроками (в фигурных скобках) и направление, откуда дует ветер: С - северный, СВ - северо-восточный, В - восточный, ЮВ - юго-восточный, Ю - южный, ЮЗ - юго-западный, З - западный, СЗ - северо-западный.
Видимость - горизонтальная дальность видимости в метрах или километрах. При видимости от 1 до 10 км при отсутствии осадков обычно наблюдается дымка, при ухудшении видимости до 1 км и менее - туман. В сухую погоду видимость может ухудшаться дымом, пылью или мглою.
Явления - указаны атмосферные явления, наблюдавшиеся в срок или в последний час перед сроком; фигурными скобками обозначены явления, наблюдавшиеся между сроками (за 1-3 часа до срока); квадратными скобками обозначены град или гололедные отложения с указанием их диаметра в мм.
Облачность - указаны через наклонную черту общая и нижняя облачность в баллах и высота нижней границы облаков в метрах; квадратными скобками обозначены формы облаков: Ci - перистые, Cs - перисто-слоистые, Cc - перисто-кучевые, Ac - высококучевые, As - высокослоистые, Sc - слоисто-кучевые, Ns - слоисто-дождевые, Cu - кучевые, Cb - кучево-дождевые. Подробнее классификацию облаков см. в Атласе облаков (PDF).
T - Температура воздуха - температура, измеренная на высоте 2 м над землей.
Td - Температура точки росы - температура, при понижении до которой содержащийся в воздухе водяной пар достигнет насыщения.
f - Относительная влажность воздуха - влажноcть воздуха, измеренная на высоте 2 м над землей.
Te - Эффективная температура - температура, которую ощущает одетый по сезону человек в тени. Характеристика душности погоды. При расчете учитывается влияние влажности воздуха и скорости ветра на теплоощущения человека.
Tes - Эффективная температура на солнце - температура, которую ощущает человек, с поправкой на солнечный нагрев. Характеристика знойности погоды. Зависит от высоты солнца над горизонтом, облачности и скорости ветра. Ночью, в пасмурную погоду, а также при ветре 12 м/с и более поправка равна нулю.
P - Атмосферное давление - приведенное к уровню моря атмосферное давление.
Po - Атмосферное давление - измеренное на уровне метеостанции атмосферное давление.
Tmin - Минимальная температура - минимум температуры воздуха на высоте 2 м над землей.
Tmax - Максимальная температура - максимум температуры воздуха на высоте 2 м над землей.
R - Количество осадков - Количество выпавших осадков за период времени, мм. При наведении курсора мыши на число - период времени, за который выпало указанное количество осадков.
R24 - Количество осадков - Количество выпавших осадков за 24 часа, мм.
S - Снежный покров - Высота снежного покрова, см. При наведении курсора мыши на число - состояние снежного покрова и степень покрытия местности в баллах.